Powrót do katalogu

STARLINK-5383

AktywnyŁącznośćVLEO
NORAD 54827·PAYLOAD·🇺🇸 United States

Wystrzelony Dec 28, 2022 z Cape Canaveral Space Force Station

Loading…

Następne Przeloty (najbliższe 24 godziny)

TLE

ŚwieżeSource: CelesTrak SupGP

Epoka: Sep 14, 2026, 20:53 UTC

1 54827C 22177H   26257.87062500 -.00031387  00000+0 -11370-2 0  2579
2 54827  43.0011 147.8357 0000991 251.8626 127.3587 15.27588741    13

Śledź STARLINK-5383 w czasie rzeczywistym z AllMySat

Download on the App Store